Regional Weather Roundup
Issued by NWS Newport/Morehead, NC

Current Version | Previous Version | Text Only | Print | Product List | Glossary On
Versions: 1 2 3 4 5 6 7 8 9 10 11 12 13 14 15 16 17 18 19 20 21 22 23 24 25 26 27 28 29 30 31 32 33 34 35 36 37 38 39 40 41 42 43 44 45 46 47 48 49 50
000 ASUS42 KMHX 291322 RWRMHX WEATHER ROUNDUP FOR EASTERN NORTH CAROLINA NATIONAL WEATHER SERVICE NEWPORT/MOREHEAD CITY NC 800 AM EST MON DEC 29 2014 NOTE: "FAIR" INDICATES FEW OR NO CLOUDS BELOW 12,000 FEET WITH NO SIGNIFICANT WEATHER AND/OR OBSTRUCTIONS TO VISIBILITY NCZ015>017-031-032-045>047-102-103-291400- NORTH COAST CITY SKY/WX TMP DP RH WIND PRES REMARKS EDENTON LGT RAIN 49 48 97 NE9G17 30.11S ELIZABETH CITY RAIN 52 47 83 NE12 30.12F KITTY HAWK DRIZZLE 50 50 100 N6 30.11R MANTEO RAIN 50 48 93 N18 30.09F $$ NCZ045>047-081-094-103-104-291400- CENTRAL COAST CITY SKY/WX TMP DP RH WIND PRES REMARKS FRISCO CLOUDY 55 55 100 NE8 30.05S SWANQUARTER N/A 55 N/A N/A NE9G18 30.06R $$ NCZ095-097-098-100-101-291400- SOUTHERN COAST CITY SKY/WX TMP DP RH WIND PRES REMARKS BEAUFORT CLOUDY 59 58 96 NE8 30.07R CEDAR ISLAND N/A 55 N/A N/A N9 30.12R JACKSONVILLE CLOUDY 60 59 96 N9 30.07R FOG PINEY ISLAND LGT RAIN 58 56 93 N8 30.08R WILMINGTON MOCLDY 58 57 97 NE5 30.05S FOG $$ NCZ011>013-027>030-043-044-078>080-089-090>093-098-291400- COASTAL PLAIN CITY SKY/WX TMP DP RH WIND PRES REMARKS AHOSKIE LGT RAIN 47 46 95 NE9G16 30.11F CLINTON CLOUDY 55 55 99 NE9G20 30.09R ELIZABETHTOWN CLOUDY 57 55 94 N3 30.07R GOLDSBORO LGT RAIN 54 54 100 VRB2 30.10R GREENVILLE LGT RAIN 54 54 100 CALM 30.13R HAVELOCK LGT RAIN 59 55 87 N13 30.10R KENANSVILLE LGT RAIN 54 53 96 N5 30.10R KINSTON CLOUDY 55 55 100 NE5 30.11R NEW BERN LGT RAIN 59 54 83 N7 30.10R RICHLANDS CLOUDY 55 52 88 NE15 30.09R ROCKY MOUNT LGT RAIN 53 52 96 E5 30.13R FOG WASHINGTON CLOUDY 55 54 95 NE3 30.12R WHITEVILLE CLOUDY 61 60 96 NE7 30.04S FOG $$ AMZ130-135-150-152-154-156-158-170-250-252-270-ANZ085-086-088-633-658-670-291400- MARINE OBSERVATIONS STATION/POSITION TIME TEMP WIND PRES WAVE SWELL AIR SEA DIR/SP/G HT/PER HT/PER (UTC) (F) (DEG/KT/KT) (MB) (FT/S) (FT/S) CHESAPEAKE LIGHT 1300 46 30/ 21/ 22 1021.2 64 E VA BEACH 1300 51 53 20/ 17/ 23 1019.3 4/ 5 2/12 DUCK 1300 49 50 30/ 18/ 20 1018.6 2 E DUCK 1300 49 N/A 2/13 2/13 10 NE DUCK 1300 51 N/A 3/13 2/13 OREGON INLET 1300 52 53 350/ 12/ 17 1019.1 13E OREGON INLT 1300 69 N/A 2/13 2/13 HATTERAS CG 1300 55 59 30/ 9/ 12 1017.9 DIAMOND BUOY 1300 63 1017.3 2/12 17 S OCRACOKE NOT AVBL CAPE LOOKOUT 1300 60 360/ 6/ 6 1018.0 BEAUFORT LAB 1300 59 56 330/ 5/ 7 1017.4 30 SE NEW RIVER 1300 60 60 CALM / 6 1018.1 3/12 2/12 5 SE WRIGHTSVLE NOT AVBL 225 S CAPE HAT 1244 74 75 220/ 16/ 19 1019.6 4/13 2/13 41 SE CHARLESTON 1300 70 72 220/ 16/ 17 1016.7 3/12 2/12 $$

USA.gov is the U.S. government's official web portal to all federal, state and local government web resources and services.